Weather History for KCHO - October, 2011

Change the Weather History Date:

Tuesday, October 18, 2011

  Actual Average Record
Temperature  
Mean Temperature 64 °F 55 °F  
Max Temperature 76 °F 67 °F 90 °F (1938)
Min Temperature 52 °F 43 °F 29 °F (2001)
Degree Days  
Heating Degree Days 1 10  
Month to date heating degree days 74 137  
Since 1 July heating degree days 100 195  
Cooling Degree Days 0 0  
Month to date cooling degree days 4 12  
Year to date cooling degree days 1603 1033  
Growing Degree Days 13 (Base 50)    
Moisture  
Dew Point 55 °F    
Average Humidity 74    
Maximum Humidity 93    
Minimum Humidity 54    
Precipitation  
Precipitation T in 0.10 in 2.68 in (1975)
Month to date precipitation 3.92 1.89  
Year to date precipitation 39.41 34.51  
Sea Level Pressure  
Sea Level Pressure 29.80 in    
Wind  
Wind Speed 2 mph (ENE)    
Max Wind Speed 12 mph    
Max Gust Speed 41 mph    
Visibility 10 miles    
Events Rain    
T = Trace of Precipitation, MM = Missing Value Source: NWS Daily Summary

Daily Weather History Graph

Daily Weather History Graph

Search for Another Location

Airport or City:

Trip Planner

Search our weather history database for the weather conditions in past years. The results will help you decide how hot, cold, wet, or windy it might be!

Date:

Astronomy

Oct. 18, 2011 Rise Set
Actual Time 7:25 AM EDT 6:32 PM EDT
Civil Twilight 6:58 AM EDT 6:58 PM EDT
Nautical Twilight 6:27 AM EDT 7:29 PM EDT
Astronomical Twilight 5:57 AM EDT 8:00 PM EDT
Moon 11:14 PM EDT (10/18) 1:11 PM EDT (10/18)
Length of Visible Light 12h 00m
Length of Day
11h 07m
Waning Gibbous, 65% of the Moon is Illuminated
Oct 18
Waning Gibbous
Oct 19
Last Quarter
Oct 26
New
Nov 2
First Quarter
Nov 10
Full

Hourly Weather History & Observations

Time (EDT) Temp. Dew Point Humidity Pressure Visibility Wind Dir Wind Speed Gust Speed Precip Events Conditions
12:53 AM 55.0 °F 53.1 °F 93% 29.80 in 8.0 mi Calm Calm - N/A   Partly Cloudy
1:53 AM 55.9 °F 53.1 °F 90% 29.81 in 10.0 mi Calm Calm - N/A   Scattered Clouds
2:53 AM 57.0 °F 52.0 °F 83% 29.80 in 10.0 mi Calm Calm - N/A   Overcast
3:53 AM 55.0 °F 51.1 °F 86% 29.81 in 10.0 mi Calm Calm - N/A   Mostly Cloudy
4:53 AM 53.1 °F 51.1 °F 93% 29.81 in 7.0 mi Calm Calm - N/A   Clear
5:53 AM 53.1 °F 50.0 °F 89% 29.83 in 10.0 mi SSE 3.5 mph - N/A   Clear
6:53 AM 52.0 °F 48.9 °F 89% 29.84 in 8.0 mi Calm Calm - N/A   Clear
7:53 AM 51.8 °F 48.2 °F 88% 29.85 in 8.0 mi Calm Calm - N/A   Partly Cloudy
8:53 AM 57.9 °F 52.0 °F 81% 29.86 in 10.0 mi Calm Calm - N/A   Scattered Clouds
9:53 AM 61.0 °F 53.1 °F 75% 29.87 in 10.0 mi Calm Calm - N/A   Partly Cloudy
10:53 AM 64.9 °F 53.1 °F 65% 29.87 in 10.0 mi Calm Calm - N/A   Clear
11:53 AM 70.0 °F 55.9 °F 61% 29.85 in 10.0 mi Variable 3.5 mph - N/A   Clear
12:53 PM 71.1 °F 57.0 °F 61% 29.83 in 10.0 mi Calm Calm - N/A   Clear
1:53 PM 73.0 °F 57.9 °F 59% 29.79 in 10.0 mi NE 6.9 mph - N/A   Clear
2:53 PM 73.9 °F 57.0 °F 55% 29.77 in 10.0 mi East 5.8 mph - N/A   Clear
3:53 PM 75.0 °F 57.9 °F 55% 29.75 in 10.0 mi Calm Calm - N/A   Clear
4:53 PM 75.0 °F 59.0 °F 57% 29.76 in 10.0 mi Calm Calm - N/A   Clear
5:53 PM 70.0 °F 62.1 °F 76% 29.75 in 10.0 mi ENE 6.9 mph - N/A   Clear
6:53 PM 66.0 °F 60.1 °F 81% 29.78 in 10.0 mi Calm Calm - N/A   Partly Cloudy
7:53 PM 66.2 °F 59.0 °F 78% 29.77 in 10.0 mi NE 6.9 mph - N/A   Partly Cloudy
8:53 PM 64.0 °F 57.9 °F 80% 29.75 in 10.0 mi NE 6.9 mph - N/A   Clear
9:53 PM 64.0 °F 57.0 °F 78% 29.76 in 10.0 mi Calm Calm - N/A   Partly Cloudy
10:18 PM 64.4 °F 57.2 °F 77% 29.76 in 10.0 mi NE 11.5 mph - N/A   Scattered Clouds
10:53 PM 64.9 °F 57.9 °F 78% 29.74 in 10.0 mi NE 11.5 mph - 0.00 in   Overcast
11:53 PM 63.0 °F 59.0 °F 87% 29.74 in 10.0 mi Calm Calm - 0.00 in Rain Light Rain